Regional Weather Roundup
Issued by NWS Jackson, KY

Home | Current Version | Previous Version | Graphics & Text | Print | Product List | Glossary On
Versions: 1 2 3 4 5 6 7 8 9 10 11 12 13 14 15 16 17 18 19 20 21 22 23 24 25 26 27 28 29 30 31 32 33 34 35 36 37 38 39 40 41 42 43 44 45 46 47 48 49 50
000
ASUS43 KJKL 161910
RWRJKL

EAST KENTUCKY HOURLY WEATHER ROUNDUP
NATIONAL WEATHER SERVICE JACKSON KY
300 PM EDT TUE SEP 16 2014

NOTE: "FAIR" INDICATES FEW OR NO CLOUDS BELOW 12,000 FEET WITH
NO SIGNIFICANT WEATHER AND/OR OBSTRUCTIONS TO VISIBILITY.

* THESE REPORTS ARE NOT UNDER NWS QUALITY CONTROL AND MAY NOT
  REPORT WEATHER SUCH AS PRECIPITATION AND FOG.

KYZ079-080-083-085-087-088-110-112-115-119-120-162000
...EASTERN KENTUCKY...

CITY           SKY/WX    TMP DP  RH WIND       PRES   REMARKS
JACKSON        CLOUDY    62  59  90 CALM      30.10F
LONDON         PTSUNNY   72  59  63 NW5       30.09F
MONTICELLO*    CLOUDY    70  61  73 CALM      30.11F
WILLIAMSBURG*  CLOUDY    66  64  94 NW3       30.10F
MIDDLESBORO*   CLOUDY    69  64  85 N5        30.09F
HARLAN APT*    CLOUDY    68  63  83 MISG      30.09F
HAZARD APT*    CLOUDY    68  63  83 CALM      30.09S
BLACK MTN*       N/A     61  61 100 NE2         N/A
PIKEVILLE APT* CLOUDY    63  61  94 N7        30.09  FOG
BIG SANDY*     CLOUDY    64  60  87 CALM      30.09F
MOREHEAD APT*  CLOUDY    61  57  88 CALM      30.14F
$$

KYZ035-036-041-042-044-050-067-078-099-162000
...CENTRAL KENTUCKY...

CITY           SKY/WX    TMP DP  RH WIND       PRES   REMARKS
MT STERLING*   CLOUDY    61  57  88 NE6       30.14F
FLEMING/MASON* CLOUDY    61  54  77 NW7       30.14S
DANVILLE*      CLOUDY    64  59  82 N6        30.12F
RICHMOND*      CLOUDY    63  57  82 N6        30.11S
LEXINGTON      PTSUNNY   70  57  63 N7        30.11F
FRANKFORT      PTSUNNY   68  53  58 VRB7      30.11F
$$

KYZ091>093-OHZ055-061-077-WVZ005-015-034-035-042-162000
...SOUTHERN OHIO/WEST VIRGINIA...

CITY           SKY/WX    TMP DP  RH WIND       PRES   REMARKS
COVINGTON      CLOUDY    61  49  64 N3        30.14F
COLUMBUS       CLOUDY    64  49  57 CALM      30.13F
DAYTON         CLOUDY    61  50  67 CALM      30.16F
WILMINGTON     CLOUDY    59  49  69 N3        30.14F
HUNTINGTON     CLOUDY    62  56  80 N3        30.10F
CHARLESTON     CLOUDY    63  56  78 NE5       30.10S
PINEVILLE*     CLOUDY    74  65  71 MISG      30.13S
BECKLEY        CLOUDY    63  57  81 N7        30.11F
BLUEFIELD      CLOUDY    63  58  83 W6        30.12F
$$

VAZ002-007-008-TNZ017-027-036-066-071-162000
...SOUTHWEST VIRGINIA/EAST TENNESSEE...

CITY           SKY/WX    TMP DP  RH WIND       PRES   REMARKS
WISE*          CLOUDY    66  63  88 N5        30.12F
JONESVILLE*    LGT RAIN  70  64  83 CALM      30.10F
ABINGDON*      LGT RAIN  70  65  83 N3        30.09S
BRISTOL        PTSUNNY   77  64  64 W13G18    30.06F
KNOXVILLE      PTSUNNY   80  65  59 W8        30.04F
OAK RIDGE      CLOUDY    78  64  61 VRB5      30.06F
CROSSVILLE     CLOUDY    70  63  78 W7        30.12S
NASHVILLE      CLOUDY    71  62  73 N9        30.11F
$$

...KEY TO REMARKS...
VSB - VISIBILITY IN MILES
WCI - WIND CHILL INDEX
HX  - HEAT INDEX

$$


USA.gov is the U.S. government's official web portal to all federal, state and local government web resources and services.